Manhattan, KS

9:51 AM CST on December 09, 2019 (GMT -0600)
Manhattan Regional

Weather History for KMHK - October, 2019

Change the Weather History Date:

Sunday, October 27, 2019

  Actual Average Record
Temperature  
Mean Temperature 42 °F 51 °F  
Max Temperature 50 °F 64 °F 100 °F (1998)
Min Temperature 33 °F 38 °F 21 °F (1997)
Degree Days  
Heating Degree Days 24 14  
Month to date heating degree days 301 267  
Since 1 July heating degree days 302 337  
Cooling Degree Days 0 0  
Month to date cooling degree days 15 21  
Year to date cooling degree days 1610 1358  
Moisture  
Dew Point 34 °F    
Average Humidity 71    
Maximum Humidity 96    
Minimum Humidity 61    
Precipitation  
Precipitation 0.00 in 0.06 in 0.32 in (2002)
Month to date precipitation 2.84 1.98  
Year to date precipitation 40.82 29.69  
Sea Level Pressure  
Sea Level Pressure 30.01 in    
Wind  
Wind Speed 6 mph ()    
Max Wind Speed 21 mph    
Max Gust Speed 30 mph    
Visibility 10.0 miles    
Events      
T = Trace of Precipitation, MM = Missing Value Source: Averaged Metar Reports

Daily Weather History Graph

Daily Weather History Graph

Search for Another Location

Airport or City:

Astronomy

Oct. 27, 2019 Rise Set
Actual Time 7:48 AM CDT 6:31 PM CDT
Civil Twilight 7:21 AM CDT 6:59 PM CDT
Nautical Twilight 6:49 AM CDT 7:30 PM CDT
Astronomical Twilight 6:18 AM CDT 8:01 PM CDT
Moon 6:59 AM CDT (10/27) 6:41 PM CDT (10/27)
Length of Visible Light 11h 38m
Length of Day
10h 43m
Waning Crescent, 0% of the Moon is Illuminated
Oct 27
Waning Crescent
Oct 27
New
Nov 4
First Quarter
Nov 12
Full
Nov 19
Last Quarter

Hourly Weather History & Observations

Time (CDT) Temp. Windchill Dew Point Humidity Pressure Visibility Wind Dir Wind Speed Gust Speed Precip Events Conditions
12:52 AM 37.0 °F - 33.1 °F 86% 29.77 in 10.0 mi Calm Calm - N/A   Clear
1:52 AM 46.0 °F 43.1 °F 35.1 °F 66% 29.81 in 10.0 mi WNW 5.8 mph - N/A   Clear
2:52 AM 39.0 °F - 33.1 °F 79% 29.82 in 10.0 mi Calm Calm - N/A   Clear
3:52 AM 36.0 °F - 33.1 °F 89% 29.84 in 10.0 mi Calm Calm - N/A   Clear
4:52 AM 34.0 °F - 32.0 °F 92% 29.87 in 10.0 mi Calm Calm - N/A   Clear
5:52 AM 35.1 °F - 32.0 °F 89% 29.90 in 10.0 mi Calm Calm - N/A   Clear
6:52 AM 42.1 °F 38.4 °F 37.0 °F 82% 29.94 in 10.0 mi NNE 5.8 mph - N/A   Clear
7:52 AM 41.0 °F 36.4 °F 36.0 °F 82% 29.98 in 10.0 mi North 6.9 mph - N/A   Clear
8:52 AM 43.0 °F 37.7 °F 36.0 °F 76% 30.01 in 10.0 mi NNE 9.2 mph - N/A   Clear
9:52 AM 45.0 °F 36.9 °F 36.0 °F 71% 30.03 in 10.0 mi NNE 20.7 mph 29.9 mph N/A   Partly Cloudy
10:38 AM 48.0 °F - 37.0 °F 66% 30.03 in 10.0 mi NE 19.6 mph 27.6 mph N/A   Mostly Cloudy
10:52 AM 46.9 °F - 37.0 °F 68% 30.04 in 10.0 mi NE 19.6 mph 26.5 mph N/A   Mostly Cloudy
11:52 AM 46.9 °F - 36.0 °F 66% 30.04 in 10.0 mi NNE 15.0 mph - N/A   Overcast
12:52 PM 48.0 °F - 36.0 °F 63% 30.04 in 10.0 mi NNE 13.8 mph 20.7 mph N/A   Overcast
1:52 PM 48.0 °F - 36.0 °F 63% 30.03 in 10.0 mi NNE 15.0 mph 21.9 mph N/A   Overcast
2:52 PM 48.9 °F - 36.0 °F 61% 30.02 in 10.0 mi NE 13.8 mph - N/A   Overcast
3:52 PM 48.0 °F - 35.1 °F 61% 30.05 in 10.0 mi North 8.1 mph - N/A   Overcast
5:52 PM 46.9 °F - 35.1 °F 63% 30.07 in 10.0 mi North 8.1 mph - N/A   Overcast
6:52 PM 44.1 °F 39.0 °F 34.0 °F 68% 30.08 in 10.0 mi North 9.2 mph 21.9 mph N/A   Overcast
7:13 PM 44.1 °F 40.1 °F 34.0 °F 68% 30.06 in 10.0 mi NNE 6.9 mph - N/A   Overcast
7:26 PM 44.1 °F 38.6 °F 34.0 °F 68% 30.06 in 10.0 mi North 10.4 mph 19.6 mph N/A   Overcast
7:52 PM 44.1 °F 39.0 °F 33.1 °F 65% 30.09 in 10.0 mi North 9.2 mph 19.6 mph N/A   Overcast
8:52 PM 43.0 °F 37.7 °F 32.0 °F 65% 30.11 in 10.0 mi North 9.2 mph 20.7 mph N/A   Overcast
9:52 PM 43.0 °F 37.7 °F 32.0 °F 65% 30.14 in 10.0 mi North 9.2 mph 23.0 mph N/A   Overcast
10:23 PM 43.0 °F 36.8 °F 30.9 °F 62% 30.13 in 10.0 mi North 11.5 mph - N/A   Overcast
10:52 PM 42.1 °F 36.6 °F 30.9 °F 65% 30.15 in 10.0 mi NNE 9.2 mph - N/A   Overcast
11:52 PM 42.1 °F 35.7 °F 30.0 °F 62% 30.17 in 10.0 mi NNE 11.5 mph 20.7 mph N/A   Overcast